KLM274 EDHI-EHAM

Flight info

Callsign KLM274
Flight time 0h 44m
Altitude 24000
Route WSN5E WSN N125 BLUFA
Aircraft A21N/M-SDE2E3FGHIRWXY/LB1

Departure

Time 2026-05-05 06:48
Airport Hamburg-Finkenwerder Airport (EDHI)

Arrival

Time 2026-05-05 07:32
Airport Amsterdam Airport Schiphol (EHAM)
Time Latitude Longitude Altitude Speed Heading
2026-05-05 06:34 53.53157 9.83368 23 ft 0 kts 210°
2026-05-05 06:40 53.53166 9.83377 23 ft 4 kts 216°
2026-05-05 06:41 53.53182 9.83409 25 ft 4 kts 256°
2026-05-05 06:41 53.53182 9.83443 25 ft 1 kts 295°
2026-05-05 06:43 53.53183 9.83438 25 ft 0 kts 295°
2026-05-05 06:43 53.53193 9.83403 26 ft 10 kts 297°
2026-05-05 06:44 53.53249 9.83350 22 ft 8 kts 343°
2026-05-05 06:44 53.53279 9.83295 22 ft 8 kts 298°
2026-05-05 06:44 53.53312 9.83165 23 ft 16 kts 282°
2026-05-05 06:44 53.53278 9.83022 20 ft 12 kts 231°
2026-05-05 06:45 53.53234 9.82928 20 ft 11 kts 232°
2026-05-05 06:45 53.53154 9.82756 18 ft 25 kts 231°
2026-05-05 06:45 53.53054 9.82541 19 ft 21 kts 232°
2026-05-05 06:45 53.52972 9.82365 20 ft 16 kts 232°
2026-05-05 06:46 53.52933 9.82184 20 ft 18 kts 269°
2026-05-05 06:46 53.52909 9.82121 21 ft 3 kts 194°
2026-05-05 06:46 53.52876 9.82170 20 ft 6 kts 74°
2026-05-05 06:46 53.52902 9.82219 20 ft 8 kts 53°
2026-05-05 06:47 53.52947 9.82316 21 ft 27 kts 51°
2026-05-05 06:47 53.53217 9.82885 20 ft 94 kts 52°
2026-05-05 06:47 53.53739 9.83991 26 ft 144 kts 51°
2026-05-05 06:47 53.54396 9.85355 571 ft 147 kts 50°
2026-05-05 06:48 53.55025 9.86689 1286 ft 149 kts 52°
2026-05-05 06:48 53.55710 9.88153 1735 ft 167 kts 52°
2026-05-05 06:48 53.56473 9.89775 1986 ft 187 kts 50°
2026-05-05 06:48 53.57631 9.90919 2235 ft 208 kts
2026-05-05 06:49 53.59030 9.90296 2708 ft 218 kts 324°
2026-05-05 06:49 53.60138 9.88565 3386 ft 220 kts 313°
2026-05-05 06:49 53.61168 9.86606 4191 ft 221 kts 304°
2026-05-05 06:49 53.61690 9.84210 4924 ft 221 kts 272°
2026-05-05 06:50 53.61450 9.81555 5310 ft 242 kts 247°
2026-05-05 06:50 53.60743 9.78844 5809 ft 260 kts 245°
2026-05-05 06:50 53.59989 9.76038 6607 ft 266 kts 245°
2026-05-05 06:50 53.59216 9.73159 7374 ft 273 kts 245°
2026-05-05 06:51 53.58443 9.70279 8257 ft 274 kts 245°
2026-05-05 06:51 53.57659 9.67353 9103 ft 276 kts 245°
2026-05-05 06:51 53.56862 9.64373 9769 ft 282 kts 245°
2026-05-05 06:51 53.56058 9.61360 9929 ft 284 kts 245°
2026-05-05 06:52 53.55248 9.58333 9967 ft 283 kts 245°
2026-05-05 06:52 53.54409 9.55205 9985 ft 305 kts 245°
2026-05-05 06:52 53.53500 9.51829 10152 ft 328 kts 245°
2026-05-05 06:52 53.52538 9.48262 10507 ft 342 kts 245°
2026-05-05 06:53 53.51550 9.44593 11150 ft 347 kts 246°
2026-05-05 06:53 53.50547 9.40866 11836 ft 351 kts 246°
2026-05-05 06:53 53.49535 9.37120 12537 ft 354 kts 246°
2026-05-05 06:53 53.48508 9.33343 13253 ft 358 kts 246°
2026-05-05 06:54 53.47469 9.29528 13961 ft 360 kts 246°
2026-05-05 06:54 53.46425 9.25699 14614 ft 362 kts 246°
2026-05-05 06:54 53.45372 9.21836 15235 ft 365 kts 246°
2026-05-05 06:54 53.44312 9.17945 15850 ft 368 kts 246°
2026-05-05 06:55 53.43245 9.14025 16453 ft 371 kts 246°
2026-05-05 06:55 53.42168 9.10074 17047 ft 374 kts 246°
2026-05-05 06:55 53.41078 9.06088 17629 ft 378 kts 246°
2026-05-05 06:55 53.39976 9.02073 18194 ft 381 kts 245°
2026-05-05 06:56 53.38860 8.98027 18649 ft 385 kts 245°
2026-05-05 06:56 53.37730 8.93940 19165 ft 388 kts 245°
2026-05-05 06:56 53.36587 8.89814 19689 ft 391 kts 245°
2026-05-05 06:56 53.35441 8.85680 20188 ft 393 kts 245°
2026-05-05 06:57 53.34289 8.81515 20678 ft 396 kts 245°
2026-05-05 06:57 53.33129 8.77323 21171 ft 398 kts 245°
2026-05-05 06:57 53.31958 8.73110 21677 ft 401 kts 245°
2026-05-05 06:57 53.30776 8.68880 22190 ft 402 kts 245°
2026-05-05 06:58 53.29607 8.64612 22693 ft 405 kts 247°
2026-05-05 06:58 53.28546 8.60250 23175 ft 407 kts 249°
2026-05-05 06:58 53.27567 8.55793 23635 ft 409 kts 250°
2026-05-05 06:58 53.26634 8.51303 23884 ft 410 kts 251°
2026-05-05 06:59 53.25732 8.46776 23946 ft 411 kts 252°
2026-05-05 06:59 53.24888 8.42220 23948 ft 411 kts 253°
2026-05-05 06:59 53.24068 8.37651 23950 ft 411 kts 253°
2026-05-05 06:59 53.23259 8.33139 23951 ft 411 kts 253°
2026-05-05 07:00 53.22425 8.28575 23951 ft 410 kts 253°
2026-05-05 07:00 53.21576 8.24034 23954 ft 410 kts 252°
2026-05-05 07:00 53.20711 8.19495 23960 ft 410 kts 252°
2026-05-05 07:00 53.19843 8.14983 23954 ft 407 kts 252°
2026-05-05 07:01 53.18982 8.10499 23955 ft 406 kts 252°
2026-05-05 07:01 53.18131 8.06026 23953 ft 405 kts 252°
2026-05-05 07:01 53.17282 8.01537 23950 ft 405 kts 252°
2026-05-05 07:01 53.16439 7.97060 23951 ft 405 kts 252°
2026-05-05 07:02 53.15594 7.92587 23950 ft 405 kts 252°
2026-05-05 07:02 53.14746 7.88107 23950 ft 405 kts 252°
2026-05-05 07:02 53.13901 7.83638 23948 ft 405 kts 252°
2026-05-05 07:02 53.13052 7.79174 23943 ft 405 kts 252°
2026-05-05 07:03 53.12197 7.74702 23946 ft 405 kts 252°
2026-05-05 07:03 53.11339 7.70249 23952 ft 405 kts 252°
2026-05-05 07:03 53.10478 7.65780 23953 ft 405 kts 252°
2026-05-05 07:03 53.09620 7.61327 23963 ft 404 kts 253°
2026-05-05 07:04 53.08763 7.56881 23967 ft 404 kts 253°
2026-05-05 07:04 53.07905 7.52437 23975 ft 403 kts 253°
2026-05-05 07:04 53.07045 7.48003 23975 ft 402 kts 253°
2026-05-05 07:04 53.06182 7.43583 23974 ft 402 kts 253°
2026-05-05 07:05 53.05317 7.39168 23980 ft 402 kts 252°
2026-05-05 07:05 53.04450 7.34759 23978 ft 402 kts 252°
2026-05-05 07:05 53.03581 7.30345 23976 ft 402 kts 252°
2026-05-05 07:05 53.02713 7.25942 23957 ft 402 kts 252°
2026-05-05 07:06 53.01841 7.21521 23940 ft 403 kts 252°
2026-05-05 07:06 53.00967 7.17102 23936 ft 403 kts 252°
2026-05-05 07:06 53.00080 7.12686 23942 ft 404 kts 252°
2026-05-05 07:06 52.99483 7.09754 23956 ft 404 kts 252°
2026-05-05 07:07 52.98579 7.05333 23958 ft 404 kts 252°
2026-05-05 07:07 52.97673 7.00921 23963 ft 404 kts 252°
2026-05-05 07:07 52.96765 6.96501 23964 ft 404 kts 252°
2026-05-05 07:07 52.95861 6.92096 23966 ft 404 kts 252°
2026-05-05 07:08 52.94665 6.86253 23971 ft 404 kts 252°
2026-05-05 07:08 52.94053 6.83271 23973 ft 404 kts 252°
2026-05-05 07:08 52.93149 6.78871 23971 ft 404 kts 252°
2026-05-05 07:08 52.92239 6.74467 23974 ft 403 kts 252°
2026-05-05 07:09 52.91326 6.70076 23977 ft 403 kts 252°
2026-05-05 07:09 52.90413 6.65699 23962 ft 403 kts 252°
2026-05-05 07:09 52.89507 6.61361 23093 ft 407 kts 252°
2026-05-05 07:09 52.88576 6.56894 22042 ft 412 kts 252°
2026-05-05 07:10 52.87643 6.52426 21270 ft 409 kts 252°
2026-05-05 07:10 52.86716 6.47998 20567 ft 406 kts 251°
2026-05-05 07:10 52.85793 6.43615 19959 ft 400 kts 251°
2026-05-05 07:10 52.84886 6.39313 19500 ft 392 kts 252°
2026-05-05 07:11 52.83971 6.35116 19056 ft 384 kts 248°
2026-05-05 07:11 52.82743 6.31244 18603 ft 378 kts 238°
2026-05-05 07:11 52.81256 6.27695 18146 ft 373 kts 237°
2026-05-05 07:11 52.79786 6.24217 17685 ft 367 kts 237°
2026-05-05 07:12 52.78341 6.20787 17215 ft 361 kts 237°
2026-05-05 07:12 52.76919 6.17410 16801 ft 356 kts 237°
2026-05-05 07:12 52.75516 6.14074 16356 ft 351 kts 237°
2026-05-05 07:12 52.74131 6.10784 15916 ft 347 kts 237°
2026-05-05 07:13 52.72758 6.07525 15470 ft 345 kts 237°
2026-05-05 07:13 52.71391 6.04292 15024 ft 342 kts 237°
2026-05-05 07:13 52.70029 6.01086 14572 ft 340 kts 237°
2026-05-05 07:13 52.68676 5.97903 14122 ft 338 kts 237°
2026-05-05 07:14 52.67329 5.94740 13655 ft 336 kts 237°
2026-05-05 07:14 52.65993 5.91597 13168 ft 334 kts 237°
2026-05-05 07:14 52.64668 5.88479 12713 ft 331 kts 237°
2026-05-05 07:14 52.63350 5.85388 12240 ft 329 kts 236°
2026-05-05 07:15 52.62038 5.82319 11781 ft 327 kts 237°
2026-05-05 07:15 52.60728 5.79261 11333 ft 327 kts 236°
2026-05-05 07:15 52.59416 5.76204 10842 ft 326 kts 236°
2026-05-05 07:15 52.58128 5.73207 10665 ft 315 kts 236°
2026-05-05 07:16 52.56888 5.70322 10538 ft 303 kts 237°
2026-05-05 07:16 52.55697 5.67549 10397 ft 292 kts 236°
2026-05-05 07:16 52.54540 5.64857 10265 ft 286 kts 236°
2026-05-05 07:16 52.53397 5.62202 10201 ft 284 kts 237°
2026-05-05 07:17 52.52256 5.59559 10087 ft 283 kts 236°
2026-05-05 07:17 52.51187 5.56860 9976 ft 282 kts 244°
2026-05-05 07:17 52.50462 5.53879 9848 ft 280 kts 251°
2026-05-05 07:17 52.49823 5.50852 9745 ft 282 kts 251°
2026-05-05 07:18 52.49175 5.47816 9635 ft 281 kts 252°
2026-05-05 07:18 52.48528 5.44805 9523 ft 280 kts 252°
2026-05-05 07:18 52.47888 5.41838 9420 ft 278 kts 252°
2026-05-05 07:18 52.47233 5.38822 9305 ft 278 kts 251°
2026-05-05 07:19 52.46591 5.35867 9202 ft 278 kts 252°
2026-05-05 07:19 52.45943 5.32878 9083 ft 279 kts 251°
2026-05-05 07:19 52.45290 5.29882 8982 ft 279 kts 251°
2026-05-05 07:19 52.44641 5.26903 8870 ft 278 kts 251°
2026-05-05 07:20 52.43994 5.23924 8752 ft 277 kts 252°
2026-05-05 07:20 52.43350 5.20963 8647 ft 275 kts 251°
2026-05-05 07:20 52.42702 5.17994 8545 ft 276 kts 251°
2026-05-05 07:20 52.42058 5.15034 8435 ft 277 kts 251°
2026-05-05 07:21 52.41409 5.12056 8332 ft 277 kts 251°
2026-05-05 07:21 52.40760 5.09090 8212 ft 277 kts 251°
2026-05-05 07:21 52.40107 5.06121 8113 ft 276 kts 251°
2026-05-05 07:21 52.39456 5.03160 7998 ft 276 kts 251°
2026-05-05 07:22 52.38806 5.00204 7897 ft 277 kts 251°
2026-05-05 07:22 52.38153 4.97249 7791 ft 276 kts 250°
2026-05-05 07:22 52.37500 4.94292 7667 ft 277 kts 251°
2026-05-05 07:22 52.36847 4.91340 7571 ft 275 kts 251°
2026-05-05 07:23 52.36192 4.88388 7466 ft 275 kts 251°
2026-05-05 07:23 52.35541 4.85460 7355 ft 274 kts 251°
2026-05-05 07:23 52.34891 4.82544 7251 ft 271 kts 251°
2026-05-05 07:23 52.34261 4.79716 7127 ft 259 kts 250°
2026-05-05 07:24 52.33667 4.77002 6991 ft 248 kts 254°
2026-05-05 07:24 52.33432 4.74273 6802 ft 239 kts 272°
2026-05-05 07:24 52.33684 4.71607 6664 ft 238 kts 283°
2026-05-05 07:24 52.34060 4.68973 6460 ft 237 kts 283°
2026-05-05 07:25 52.34415 4.66335 6223 ft 238 kts 278°
2026-05-05 07:25 52.34375 4.63681 5998 ft 238 kts 258°
2026-05-05 07:25 52.33791 4.61167 5770 ft 238 kts 239°
2026-05-05 07:25 52.32899 4.58885 5534 ft 238 kts 238°
2026-05-05 07:26 52.31998 4.56573 5300 ft 238 kts 238°
2026-05-05 07:26 52.31124 4.54319 5080 ft 238 kts 238°
2026-05-05 07:26 52.30241 4.52038 4848 ft 237 kts 238°
2026-05-05 07:26 52.29359 4.49760 4611 ft 238 kts 239°
2026-05-05 07:27 52.28475 4.47468 4374 ft 238 kts 239°
2026-05-05 07:27 52.27560 4.45204 4141 ft 242 kts 231°
2026-05-05 07:27 52.26170 4.43715 3905 ft 243 kts 193°
2026-05-05 07:27 52.24514 4.43757 3636 ft 241 kts 161°
2026-05-05 07:28 52.22974 4.45034 3400 ft 247 kts 137°
2026-05-05 07:28 52.21862 4.47020 3339 ft 230 kts 117°
2026-05-05 07:28 52.21238 4.49378 3224 ft 224 kts 98°
2026-05-05 07:28 52.21110 4.51862 3030 ft 218 kts 81°
2026-05-05 07:29 52.21458 4.54230 2809 ft 214 kts 64°
2026-05-05 07:29 52.22188 4.56308 2543 ft 210 kts 55°
2026-05-05 07:29 52.22955 4.58287 2255 ft 204 kts 56°
2026-05-05 07:29 52.23704 4.60225 1953 ft 199 kts 57°
2026-05-05 07:30 52.24417 4.62071 1715 ft 185 kts 56°
2026-05-05 07:30 52.25639 4.65238 1248 ft 146 kts 56°
2026-05-05 07:30 52.26159 4.66585 1051 ft 135 kts 56°
2026-05-05 07:31 52.26650 4.67858 851 ft 132 kts 56°
2026-05-05 07:31 52.27139 4.69123 682 ft 133 kts 55°
2026-05-05 07:31 52.27631 4.70401 509 ft 132 kts 56°
2026-05-05 07:31 52.28115 4.71656 322 ft 133 kts 53°
2026-05-05 07:32 52.28600 4.72919 156 ft 133 kts 53°
2026-05-05 07:32 52.29085 4.74180 8 ft 124 kts 54°
2026-05-05 07:32 52.29491 4.75229 -2 ft 87 kts 58°
2026-05-05 07:32 52.29720 4.75826 -2 ft 42 kts 57°
2026-05-05 07:33 52.29873 4.76220 -3 ft 41 kts 58°
2026-05-05 07:33 52.30027 4.76539 -2 ft 27 kts 31°
2026-05-05 07:33 52.30193 4.76681 -1 ft 26 kts 28°
2026-05-05 07:33 52.30342 4.76722 -1 ft 21 kts 341°
2026-05-05 07:34 52.30432 4.76670 -1 ft 3 kts 25°
2026-05-05 07:34 52.30434 4.76672 -1 ft 0 kts 26°